Tracking 29892 objects as of 21-Nov-2024
HD Live streaming from Space Station
objects crossing your sky now

STARLINK-4655

Track STARLINK-4655 now!
10-day predictions
STARLINK-4655 is classified as:


NORAD ID: 53613
Int'l Code: 2022-104AB
Perigee: 545.8 km
Apogee: 548.0 km
Inclination: 53.2 °
Period: 95.4 minutes
Semi major axis: 6917 km
RCS: Unknown
Launch date: August 28, 2022
Source: United States (US)
Launch site: AIR FORCE EASTERN TEST RANGE (AFETR)
Your satellite tracking list
Your tracking list is empty




NASA's NSSDC Master Catalog

Two Line Element Set (TLE):
1 53613U 22104AB  24324.95233641 -.00000036  00000-0  15812-4 0  9996
2 53613  53.2166 205.4462 0001595  94.7205 265.3970 15.08840786123963
Source of the keplerian elements: AFSPC